Tracking 29892 objects as of 21-Nov-2024
HD Live streaming from Space Station
objects crossing your sky now

STARLINK-4298

Track STARLINK-4298 now!
10-day predictions
STARLINK-4298 is classified as:


NORAD ID: 53177
Int'l Code: 2022-083AX
Perigee: 546.0 km
Apogee: 547.8 km
Inclination: 53.2 °
Period: 95.4 minutes
Semi major axis: 6917 km
RCS: Unknown
Launch date: July 17, 2022
Source: United States (US)
Launch site: AIR FORCE EASTERN TEST RANGE (AFETR)
Your satellite tracking list
Your tracking list is empty




NASA's NSSDC Master Catalog

Two Line Element Set (TLE):
1 53177U 22083AX  24325.77617587  .00000328  00000-0  38676-4 0  9999
2 53177  53.2165 106.5912 0001298  92.2539 267.8601 15.08841731130159
Source of the keplerian elements: AFSPC